Regional Weather Roundup
Issued by NWS Jackson, KY

Home | Current Version | Previous Version | Text Only | Print | Product List | Glossary Off
Versions: 1 2 3 4 5 6 7 8 9 10 11 12 13 14 15 16 17 18 19 20 21 22 23 24 25 26 27 28 29 30 31 32 33 34 35 36 37 38 39 40 41 42 43 44 45 46 47 48 49 50

000
ASUS43 KJKL 231110
RWRJKL

EAST KENTUCKY HOURLY WEATHER ROUNDUP
NATIONAL WEATHER SERVICE JACKSON KY
700 AM EDT SAT MAY 23 2015

NOTE: "FAIR" INDICATES FEW OR NO CLOUDS BELOW 12,000 FEET WITH
NO SIGNIFICANT WEATHER AND/OR OBSTRUCTIONS TO VISIBILITY.

* THESE REPORTS ARE NOT UNDER NWS QUALITY CONTROL AND MAY NOT
  REPORT WEATHER SUCH AS PRECIPITATION AND FOG.

KYZ079-080-083-085-087-088-110-112-115-119-120-231200
...EASTERN KENTUCKY...

CITY           SKY/WX    TMP DP  RH WIND       PRES   REMARKS
JACKSON        MOCLDY    53  45  74 S3        30.38R
LONDON         MOCLDY    49  44  83 CALM      30.37R
SOMERSET*      PTCLDY    48  48 100 CALM      30.38R
MONTICELLO*    MOCLDY    51  50  97 CALM      30.39R
MIDDLESBORO*   MOCLDY    47  46  98 CALM      30.40R
HARLAN APT*    SUNNY     45  45 100 CALM      30.40R
HAZARD APT*    SUNNY     46  46 100 CALM      30.38R
BLACK MTN*       N/A     52  41  66 CALM        N/A
PIKEVILLE APT* CLEAR     48  46  93 S6        30.39R
BIG SANDY*     CLOUDY    52  47  84 CALM      30.38R
MOREHEAD APT*  CLOUDY    52  48  87 S3        30.39R
$$

KYZ035-036-041-042-044-050-067-078-099-231200
...CENTRAL KENTUCKY...

CITY           SKY/WX    TMP DP  RH WIND       PRES   REMARKS
MT STERLING*   MOCLDY    50  48  93 CALM      30.38R
FLEMING/MASON* PTCLDY    50  48  93 E3        30.38R
DANVILLE*      MOCLDY    50  46  87 CALM      30.37R
RICHMOND*      MOCLDY    50  46  87 SE5       30.35R
LEXINGTON      PTCLDY    50  46  86 E3        30.36R
FRANKFORT      PTCLDY    49  46  90 CALM      30.35R
$$

KYZ091>093-OHZ055-061-077-WVZ005-015-034-035-042-231200
...SOUTHERN OHIO/WEST VIRGINIA...

CITY           SKY/WX    TMP DP  RH WIND       PRES   REMARKS
COVINGTON      CLOUDY    55  49  80 SE3       30.35R
COLUMBUS       MOCLDY    46  39  76 CALM      30.38R
DAYTON         CLOUDY    54  40  59 E8        30.37R
WILMINGTON     CLOUDY    52  39  61 SE6       30.37R
HUNTINGTON     CLOUDY    49  47  93 CALM      30.37R
CHARLESTON     PTCLDY    47  46  97 CALM      30.38R
PINEVILLE*     CLEAR     43  43 100 MISG      30.46R
BECKLEY        CLEAR     47  41  80 S3        30.41R
BLUEFIELD      CLEAR     52  39  61 W3        30.42R
$$

VAZ002-007-008-TNZ017-027-036-066-071-231200
...SOUTHWEST VIRGINIA/EAST TENNESSEE...

CITY           SKY/WX    TMP DP  RH WIND       PRES   REMARKS
WISE*          CLEAR     54  36  50 CALM      30.42R
JONESVILLE*    SUNNY     46  46 100 CALM      30.41R
ABINGDON*      CLEAR     49  44  80 E3        30.40S
BRISTOL        MOCLDY    47  45  93 N3        30.40R
KNOXVILLE      PTCLDY    50  47  89 NE3       30.35R
OAK RIDGE      PTCLDY    50  47  89 CALM      30.38R
CROSSVILLE     CLEAR     47  43  86 CALM      30.37R
NASHVILLE      MOCLDY    52  49  89 CALM      30.33R
$$

...KEY TO REMARKS...
VSB - VISIBILITY IN MILES
WCI - WIND CHILL INDEX
HX  - HEAT INDEX

$$


USA.gov is the U.S. government's official web portal to all federal, state and local government web resources and services.